,,,PA_Meas_PMT16A,,PR_Meas_QMR101_102,,RH_Meas_QMH101,,SR_Meas_QMS101,,TA_Meas_QMH101,,GenWind,,GenWind,
date,time,status,PA,status,PR,status,RH,status,SR,status,TA,status,DirAvg,status,SpdAvg,
2011-03-19, 00:00:05,VALID,1000.06,VALID,0,VALID,89.9685,VALID,0,VALID,24.5404,VALID,98,VALID,0.780469,
2011-03-19, 00:01:05,VALID,1000.06,VALID,0,VALID,89.8998,VALID,0,VALID,24.519,VALID,84,VALID,0.909766,
2011-03-19, 00:02:05,VALID,1000.04,VALID,0,VALID,89.9227,VALID,0,VALID,24.4995,VALID,78,VALID,1.0875,
2011-03-19, 00:03:05,VALID,1000.01,VALID,0,VALID,90.0677,VALID,0,VALID,24.5209,VALID,78,VALID,0.863672,
2011-03-19, 00:04:05,VALID,999.972,VALID,0,VALID,90.205,VALID,0,VALID,24.4604,VALID,77,VALID,0.867969,
2011-03-19, 00:05:05,VALID,999.973,VALID,0,VALID,90.3728,VALID,0,VALID,24.4623,VALID,77,VALID,0.992188,
2011-03-19, 00:06:05,VALID,999.96,VALID,0,VALID,90.5254,VALID,0,VALID,24.4233,VALID,77,VALID,0.990625,
2011-03-19, 00:07:05,VALID,999.937,VALID,0,VALID,90.6399,VALID,0,VALID,24.4037,VALID,66,VALID,0.968359,
2011-03-19, 00:08:05,VALID,999.931,VALID,0,VALID,90.762,VALID,0,VALID,24.3629,VALID,57,VALID,1.23008,
2011-03-19, 00:09:05,VALID,999.912,VALID,0,VALID,90.8535,VALID,0,VALID,24.3433,VALID,57,VALID,0.885547,
2011-03-19, 00:10:05,VALID,999.878,VALID,0,VALID,90.9298,VALID,0,VALID,24.3238,VALID,54,VALID,0.869531,
2011-03-19, 00:11:05,VALID,999.867,VALID,0,VALID,91.0137,VALID,0,VALID,24.3257,VALID,52,VALID,0.901563,
2011-03-19, 00:12:05,VALID,999.803,VALID,0,VALID,91.0671,VALID,0,VALID,24.2866,VALID,52,VALID,0.71875,
2011-03-19, 00:13:05,VALID,999.787,VALID,0,VALID,91.1053,VALID,0,VALID,24.2671,VALID,52,VALID,0.229687,
2011-03-19, 00:14:05,VALID,999.769,VALID,0,VALID,91.1511,VALID,0,VALID,24.2476,VALID,52,VALID,0,
2011-03-19, 00:15:05,VALID,999.747,VALID,0,VALID,91.1511,VALID,0,VALID,24.2067,VALID,52,VALID,0,
2011-03-19, 00:16:05,VALID,999.726,VALID,0,VALID,91.1663,VALID,0,VALID,24.2086,VALID,52,VALID,0,
2011-03-19, 00:17:05,VALID,999.732,VALID,0,VALID,91.2045,VALID,0,VALID,24.1891,VALID,52,VALID,0,
2011-03-19, 00:18:05,VALID,999.718,VALID,0,VALID,91.235,VALID,0,VALID,24.1891,VALID,52,VALID,0,
2011-03-19, 00:19:05,VALID,999.711,VALID,0,VALID,91.296,VALID,0,VALID,24.1482,VALID,52,VALID,0,
2011-03-19, 00:20:05,VALID,999.683,VALID,0,VALID,91.3571,VALID,0,VALID,24.1696,VALID,52,VALID,0,
2011-03-19, 00:21:05,VALID,999.67,VALID,0,VALID,91.3952,VALID,0,VALID,24.1287,VALID,52,VALID,0,
2011-03-19, 00:22:05,VALID,999.668,VALID,0,VALID,91.4257,VALID,0,VALID,24.15,VALID,52,VALID,0,
2011-03-19, 00:23:05,VALID,999.618,VALID,0,VALID,91.4334,VALID,0,VALID,24.1305,VALID,52,VALID,0,
2011-03-19, 00:24:05,VALID,999.623,VALID,0,VALID,91.4715,VALID,0,VALID,24.111,VALID,52,VALID,0,
2011-03-19, 00:25:05,VALID,999.585,VALID,0,VALID,91.5097,VALID,0,VALID,24.0701,VALID,52,VALID,0,
2011-03-19, 00:26:05,VALID,999.607,VALID,0,VALID,91.5249,VALID,0,VALID,24.111,VALID,52,VALID,0,
2011-03-19, 00:27:05,VALID,999.569,VALID,0,VALID,91.5402,VALID,0,VALID,24.0915,VALID,52,VALID,0,
2011-03-19, 00:28:05,VALID,999.58,VALID,0,VALID,91.5707,VALID,0,VALID,24.072,VALID,52,VALID,0,
2011-03-19, 00:29:05,VALID,999.561,VALID,0,VALID,91.5783,VALID,0,VALID,24.0311,VALID,52,VALID,0,
2011-03-19, 00:30:05,VALID,999.543,VALID,0,VALID,91.6165,VALID,0,VALID,24.0311,VALID,52,VALID,0,
2011-03-19, 00:31:05,VALID,999.54,VALID,0,VALID,91.6394,VALID,0,VALID,23.9726,VALID,52,VALID,0,
2011-03-19, 00:32:05,VALID,999.523,VALID,0,VALID,91.6699,VALID,0,VALID,23.9726,VALID,52,VALID,0,
2011-03-19, 00:33:05,VALID,999.481,VALID,0,VALID,91.7462,VALID,0,VALID,23.9531,VALID,22,VALID,0,
2011-03-19, 00:34:05,VALID,999.443,VALID,0,VALID,91.7996,VALID,0,VALID,23.9336,VALID,22,VALID,0,
2011-03-19, 00:35:05,VALID,999.428,VALID,0,VALID,91.853,VALID,0,VALID,23.9159,VALID,22,VALID,0,
2011-03-19, 00:36:04,VALID,999.39,VALID,0,VALID,91.8759,VALID,0.112286,VALID,23.8945,VALID,22,VALID,0,
2011-03-19, 00:37:04,VALID,999.37,VALID,0,VALID,91.9293,VALID,0,VALID,23.9159,VALID,22,VALID,0,
2011-03-19, 00:38:04,VALID,999.322,VALID,0,VALID,91.9827,VALID,0,VALID,23.8945,VALID,22,VALID,0,
2011-03-19, 00:39:04,VALID,999.319,VALID,0,VALID,92.0361,VALID,0,VALID,23.9159,VALID,22,VALID,0,
2011-03-19, 00:40:04,VALID,999.3,VALID,0,VALID,92.0895,VALID,0,VALID,23.914,VALID,22,VALID,0,
2011-03-19, 00:41:04,VALID,999.267,VALID,0,VALID,92.1506,VALID,0,VALID,23.9159,VALID,22,VALID,0,
2011-03-19, 00:42:04,VALID,999.274,VALID,0,VALID,92.1429,VALID,0,VALID,23.8963,VALID,22,VALID,0,
2011-03-19, 00:43:04,VALID,999.302,VALID,0,VALID,92.1811,VALID,0,VALID,23.875,VALID,22,VALID,0,
2011-03-19, 00:44:04,VALID,999.276,VALID,0,VALID,92.2192,VALID,0,VALID,23.8963,VALID,22,VALID,0,
2011-03-19, 00:45:04,VALID,999.279,VALID,0,VALID,92.2497,VALID,0,VALID,23.8768,VALID,22,VALID,0,
2011-03-19, 00:46:04,VALID,999.238,VALID,0,VALID,92.2879,VALID,0,VALID,23.8573,VALID,22,VALID,0,
2011-03-19, 00:47:04,VALID,999.245,VALID,0,VALID,92.265,VALID,0,VALID,23.8183,VALID,22,VALID,0,
2011-03-19, 00:48:04,VALID,999.192,VALID,0,VALID,92.2879,VALID,0,VALID,23.7988,VALID,22,VALID,0,
2011-03-19, 00:49:04,VALID,999.15,VALID,0,VALID,92.3031,VALID,0,VALID,23.7988,VALID,22,VALID,0,
2011-03-19, 00:50:04,VALID,999.119,VALID,0,VALID,92.3184,VALID,0,VALID,23.7988,VALID,22,VALID,0,
2011-03-19, 00:51:04,VALID,999.117,VALID,0,VALID,92.3489,VALID,0,VALID,23.7579,VALID,22,VALID,0,
2011-03-19, 00:52:04,VALID,999.076,VALID,0,VALID,92.3947,VALID,0,VALID,23.7793,VALID,22,VALID,0,
2011-03-19, 00:53:04,VALID,999.055,VALID,0,VALID,92.3871,VALID,0,VALID,23.7793,VALID,22,VALID,0,
2011-03-19, 00:54:04,VALID,999.043,VALID,0,VALID,92.4252,VALID,0,VALID,23.7775,VALID,22,VALID,0,
2011-03-19, 00:55:04,VALID,999.028,VALID,0,VALID,92.4481,VALID,0,VALID,23.8183,VALID,22,VALID,0,
2011-03-19, 00:56:04,VALID,999.001,VALID,0,VALID,92.4328,VALID,0,VALID,23.7988,VALID,22,VALID,0,
2011-03-19, 00:57:04,VALID,999.007,VALID,0,VALID,92.4634,VALID,0,VALID,23.8183,VALID,22,VALID,0,
2011-03-19, 00:58:04,VALID,998.981,VALID,0,VALID,92.471,VALID,0,VALID,23.8183,VALID,22,VALID,0,
2011-03-19, 00:59:04,VALID,998.995,VALID,0,VALID,92.471,VALID,0,VALID,23.8183,VALID,22,VALID,0,
2011-03-19, 01:00:04,VALID,998.97,VALID,0,VALID,92.4405,VALID,0,VALID,23.8183,VALID,122,VALID,0.733594,
2011-03-19, 01:01:04,VALID,998.94,VALID,0,VALID,92.4405,VALID,0,VALID,23.8183,VALID,122,VALID,0.835547,
2011-03-19, 01:02:04,VALID,998.939,VALID,0,VALID,92.4023,VALID,0,VALID,23.7988,VALID,119,VALID,0.777344,
2011-03-19, 01:03:04,VALID,998.938,VALID,0,VALID,92.3718,VALID,0,VALID,23.7988,VALID,119,VALID,0.701953,
2011-03-19, 01:04:04,VALID,998.922,VALID,0,VALID,92.3337,VALID,0,VALID,23.7793,VALID,119,VALID,0.591406,
2011-03-19, 01:05:04,VALID,998.897,VALID,0,VALID,92.2955,VALID,0,VALID,23.7793,VALID,119,VALID,0.630078,
2011-03-19, 01:06:04,VALID,998.872,VALID,0,VALID,92.2879,VALID,0,VALID,23.7793,VALID,119,VALID,0.562109,
2011-03-19, 01:07:04,VALID,998.893,VALID,0,VALID,92.2574,VALID,0,VALID,23.7988,VALID,125,VALID,0.657031,
2011-03-19, 01:08:04,VALID,998.87,VALID,0,VALID,92.1887,VALID,0,VALID,23.7793,VALID,142,VALID,0.708984,
2011-03-19, 01:09:04,VALID,998.889,VALID,0,VALID,92.1887,VALID,0,VALID,23.7793,VALID,142,VALID,0.622656,
2011-03-19, 01:10:04,VALID,998.844,VALID,0,VALID,92.1506,VALID,0,VALID,23.7988,VALID,142,VALID,0.518359,
2011-03-19, 01:11:04,VALID,998.886,VALID,0,VALID,92.1429,VALID,0,VALID,23.7988,VALID,142,VALID,0.434375,
2011-03-19, 01:12:04,VALID,998.881,VALID,0,VALID,92.12,VALID,0,VALID,23.7988,VALID,142,VALID,0.528906,
2011-03-19, 01:13:04,VALID,998.877,VALID,0,VALID,92.0819,VALID,0,VALID,23.7793,VALID,142,VALID,0.613281,
2011-03-19, 01:14:04,VALID,998.852,VALID,0,VALID,91.9903,VALID,0,VALID,23.7597,VALID,142,VALID,0.728516,
2011-03-19, 01:15:04,VALID,998.846,VALID,0,VALID,91.853,VALID,0,VALID,23.7402,VALID,157,VALID,0.573438,
2011-03-19, 01:16:04,VALID,998.842,VALID,0,VALID,91.6317,VALID,0,VALID,23.7402,VALID,157,VALID,0.484375,
2011-03-19, 01:17:04,VALID,998.832,VALID,0,VALID,91.4105,VALID,0,VALID,23.7207,VALID,157,VALID,0.482812,
2011-03-19, 01:18:04,VALID,998.844,VALID,0,VALID,91.1663,VALID,0,VALID,23.7012,VALID,157,VALID,0.138281,
2011-03-19, 01:19:04,VALID,998.832,VALID,0,VALID,90.9298,VALID,0,VALID,23.7012,VALID,157,VALID,0.360547,
2011-03-19, 01:20:04,VALID,998.819,VALID,0,VALID,90.6551,VALID,0,VALID,23.7012,VALID,156,VALID,0.455469,
2011-03-19, 01:21:04,VALID,998.823,VALID,0,VALID,90.4568,VALID,0,VALID,23.7012,VALID,157,VALID,0.477734,
2011-03-19, 01:22:04,VALID,998.786,VALID,0,VALID,90.2813,VALID,0,VALID,23.6799,VALID,156,VALID,0.387109,
2011-03-19, 01:23:04,VALID,998.785,VALID,0,VALID,90.1745,VALID,0,VALID,23.7012,VALID,157,VALID,0.608203,
2011-03-19, 01:24:04,VALID,998.778,VALID,0,VALID,90.0829,VALID,0,VALID,23.7012,VALID,157,VALID,0.606641,
2011-03-19, 01:25:04,VALID,998.771,VALID,0,VALID,90.0143,VALID,0,VALID,23.7012,VALID,165,VALID,1.11523,
2011-03-19, 01:26:04,VALID,998.765,VALID,0,VALID,89.9151,VALID,0,VALID,23.7402,VALID,176,VALID,1.02656,
2011-03-19, 01:27:04,VALID,998.728,VALID,0,VALID,89.8006,VALID,0,VALID,23.7597,VALID,161,VALID,0.926172,
2011-03-19, 01:28:04,VALID,998.712,VALID,0,VALID,89.7014,VALID,0,VALID,23.7793,VALID,172,VALID,0.766797,
2011-03-19, 01:29:04,VALID,998.723,VALID,0,VALID,89.6633,VALID,0,VALID,23.8183,VALID,183,VALID,1.33672,
2011-03-19, 01:30:04,VALID,998.69,VALID,0,VALID,89.4115,VALID,0,VALID,23.836,VALID,183,VALID,0.703516,
2011-03-19, 01:31:04,VALID,998.712,VALID,0,VALID,89.1521,VALID,0,VALID,23.8963,VALID,202,VALID,0.722656,
2011-03-19, 01:32:04,VALID,998.712,VALID,0,VALID,88.9309,VALID,0,VALID,23.914,VALID,221,VALID,0.871484,
2011-03-19, 01:33:04,VALID,998.741,VALID,0,VALID,88.7477,VALID,0,VALID,23.914,VALID,221,VALID,0.520312,
2011-03-19, 01:34:04,VALID,998.698,VALID,0,VALID,88.618,VALID,0,VALID,23.9549,VALID,221,VALID,0.566406,
2011-03-19, 01:35:04,VALID,998.762,VALID,0,VALID,88.4731,VALID,0,VALID,23.9354,VALID,221,VALID,0.14375,
2011-03-19, 01:36:04,VALID,998.757,VALID,0,VALID,88.3739,VALID,0,VALID,23.9354,VALID,221,VALID,0.189453,
2011-03-19, 01:37:04,VALID,998.746,VALID,0,VALID,88.3663,VALID,0,VALID,23.9159,VALID,221,VALID,0,
2011-03-19, 01:38:04,VALID,998.724,VALID,0,VALID,88.4502,VALID,0,VALID,23.8963,VALID,221,VALID,0,
2011-03-19, 01:39:04,VALID,998.79,VALID,0,VALID,88.351,VALID,0,VALID,23.8555,VALID,221,VALID,0.115625,
2011-03-19, 01:40:04,VALID,998.76,VALID,0,VALID,88.206,VALID,0,VALID,23.836,VALID,221,VALID,0.338672,
2011-03-19, 01:41:04,VALID,998.766,VALID,0,VALID,88.0382,VALID,0,VALID,23.797,VALID,187,VALID,0.502344,
2011-03-19, 01:42:04,VALID,998.73,VALID,0,VALID,88.0229,VALID,0,VALID,23.7988,VALID,134,VALID,0.702344,
2011-03-19, 01:43:04,VALID,998.746,VALID,0,VALID,88.0458,VALID,0,VALID,23.7793,VALID,129,VALID,0.907422,
2011-03-19, 01:44:04,VALID,998.765,VALID,0,VALID,88.29,VALID,0,VALID,23.7207,VALID,129,VALID,0.864844,
2011-03-19, 01:45:04,VALID,998.732,VALID,0,VALID,88.6638,VALID,0,VALID,23.6622,VALID,129,VALID,0.880469,
2011-03-19, 01:46:04,VALID,998.732,VALID,0,VALID,89.0834,VALID,0,VALID,23.6232,VALID,132,VALID,0.877344,
2011-03-19, 01:47:04,VALID,998.732,VALID,0,VALID,89.4191,VALID,0,VALID,23.5646,VALID,132,VALID,0.8125,
2011-03-19, 01:48:04,VALID,998.724,VALID,0,VALID,89.6786,VALID,0,VALID,23.5451,VALID,132,VALID,0.841797,
2011-03-19, 01:49:04,VALID,998.742,VALID,0,VALID,89.9227,VALID,0,VALID,23.5061,VALID,132,VALID,0.840625,
2011-03-19, 01:50:04,VALID,998.758,VALID,0,VALID,89.9761,VALID,0,VALID,23.4866,VALID,132,VALID,0.752734,
2011-03-19, 01:51:04,VALID,998.768,VALID,0,VALID,89.9761,VALID,0,VALID,23.428,VALID,132,VALID,0.887891,
2011-03-19, 01:52:04,VALID,998.73,VALID,0,VALID,90.0982,VALID,0,VALID,23.428,VALID,132,VALID,0.889063,
2011-03-19, 01:53:04,VALID,998.742,VALID,0,VALID,90.3042,VALID,0,VALID,23.4085,VALID,130,VALID,0.913672,
2011-03-19, 01:54:04,VALID,998.744,VALID,0,VALID,90.556,VALID,0,VALID,23.4085,VALID,130,VALID,0.899609,
2011-03-19, 01:55:04,VALID,998.749,VALID,0,VALID,90.7925,VALID,0,VALID,23.428,VALID,122,VALID,0.987891,
2011-03-19, 01:56:04,VALID,998.745,VALID,0,VALID,90.7543,VALID,0,VALID,23.4085,VALID,111,VALID,0.907812,
2011-03-19, 01:57:04,VALID,998.763,VALID,0,VALID,90.6628,VALID,0.112286,VALID,23.389,VALID,107,VALID,0.926953,
2011-03-19, 01:58:04,VALID,998.778,VALID,0,VALID,90.6628,VALID,0,VALID,23.3872,VALID,101,VALID,0.848828,
2011-03-19, 01:59:04,VALID,998.779,VALID,0,VALID,90.7162,VALID,0,VALID,23.4085,VALID,101,VALID,0.80625,
2011-03-19, 02:00:04,VALID,998.781,VALID,0,VALID,90.7467,VALID,0,VALID,23.428,VALID,101,VALID,0.790625,
2011-03-19, 02:01:04,VALID,998.813,VALID,0,VALID,90.6704,VALID,0,VALID,23.4263,VALID,101,VALID,0.833594,
2011-03-19, 02:02:04,VALID,998.789,VALID,0,VALID,90.5178,VALID,0,VALID,23.4671,VALID,101,VALID,0.798047,
2011-03-19, 02:03:04,VALID,998.817,VALID,0,VALID,90.4186,VALID,0,VALID,23.4475,VALID,101,VALID,0.717188,
2011-03-19, 02:04:04,VALID,998.797,VALID,0,VALID,90.3271,VALID,0,VALID,23.4458,VALID,101,VALID,0.752344,
2011-03-19, 02:05:04,VALID,998.83,VALID,0,VALID,90.2355,VALID,0,VALID,23.4458,VALID,101,VALID,0.589063,
2011-03-19, 02:06:04,VALID,998.816,VALID,0,VALID,90.1745,VALID,0,VALID,23.4671,VALID,101,VALID,0.598047,
2011-03-19, 02:07:04,VALID,998.808,VALID,0,VALID,90.2355,VALID,0,VALID,23.4475,VALID,101,VALID,0.575391,
2011-03-19, 02:08:04,VALID,998.83,VALID,0,VALID,90.2813,VALID,0,VALID,23.4475,VALID,101,VALID,0.538281,
2011-03-19, 02:09:04,VALID,998.821,VALID,0,VALID,90.3118,VALID,0,VALID,23.4671,VALID,101,VALID,0.522656,
2011-03-19, 02:10:04,VALID,998.818,VALID,0,VALID,90.35,VALID,0,VALID,23.4671,VALID,101,VALID,0.480859,
2011-03-19, 02:11:04,VALID,998.856,VALID,0,VALID,90.3576,VALID,0,VALID,23.4671,VALID,101,VALID,0.434375,
2011-03-19, 02:12:04,VALID,998.842,VALID,0,VALID,90.411,VALID,0,VALID,23.4866,VALID,101,VALID,0.498828,
2011-03-19, 02:13:04,VALID,998.849,VALID,0,VALID,90.4797,VALID,0,VALID,23.5061,VALID,101,VALID,0.639453,
2011-03-19, 02:14:04,VALID,998.879,VALID,0,VALID,90.5331,VALID,0,VALID,23.5256,VALID,101,VALID,0.753516,
2011-03-19, 02:15:04,VALID,998.848,VALID,0,VALID,90.5636,VALID,0,VALID,23.5469,VALID,102,VALID,0.740234,
2011-03-19, 02:16:04,VALID,998.823,VALID,0,VALID,90.556,VALID,0,VALID,23.5451,VALID,108,VALID,0.789453,
2011-03-19, 02:17:04,VALID,998.864,VALID,0,VALID,90.5102,VALID,0,VALID,23.5646,VALID,111,VALID,0.814062,
2011-03-19, 02:18:04,VALID,998.832,VALID,0,VALID,90.4873,VALID,0,VALID,23.5841,VALID,111,VALID,0.692578,
2011-03-19, 02:19:04,VALID,998.861,VALID,0,VALID,90.5178,VALID,0,VALID,23.6036,VALID,111,VALID,0.537109,
2011-03-19, 02:20:04,VALID,998.854,VALID,0,VALID,90.5178,VALID,0,VALID,23.6232,VALID,111,VALID,0.664844,
2011-03-19, 02:21:04,VALID,998.889,VALID,0,VALID,90.5636,VALID,0,VALID,23.6427,VALID,111,VALID,0.53125,
2011-03-19, 02:22:04,VALID,998.885,VALID,0,VALID,90.5788,VALID,0,VALID,23.6622,VALID,111,VALID,0.575781,
2011-03-19, 02:23:04,VALID,998.873,VALID,0,VALID,90.6017,VALID,0,VALID,23.6622,VALID,111,VALID,0.620703,
2011-03-19, 02:24:04,VALID,998.885,VALID,0,VALID,90.5102,VALID,0,VALID,23.6622,VALID,111,VALID,0.674219,
2011-03-19, 02:25:04,VALID,998.864,VALID,0,VALID,90.4644,VALID,0,VALID,23.6817,VALID,111,VALID,0.553125,
2011-03-19, 02:26:04,VALID,998.858,VALID,0,VALID,90.4797,VALID,0,VALID,23.7012,VALID,111,VALID,0.70625,
2011-03-19, 02:27:04,VALID,998.807,VALID,0,VALID,90.4415,VALID,0,VALID,23.7207,VALID,111,VALID,0.699219,
2011-03-19, 02:28:04,VALID,998.783,VALID,0,VALID,90.3728,VALID,0,VALID,23.7207,VALID,111,VALID,0.668359,
2011-03-19, 02:29:04,VALID,998.75,VALID,0,VALID,90.3118,VALID,0,VALID,23.6994,VALID,111,VALID,0.65,
2011-03-19, 02:30:04,VALID,998.708,VALID,0,VALID,90.2737,VALID,0,VALID,23.7207,VALID,111,VALID,0.664453,
2011-03-19, 02:31:04,VALID,998.694,VALID,0,VALID,90.266,VALID,0,VALID,23.6994,VALID,111,VALID,0.778125,
2011-03-19, 02:32:04,VALID,998.657,VALID,0,VALID,90.2889,VALID,0,VALID,23.6799,VALID,115,VALID,0.735547,
2011-03-19, 02:33:04,VALID,998.671,VALID,0,VALID,90.3423,VALID,0,VALID,23.6604,VALID,118,VALID,0.845312,
2011-03-19, 02:34:04,VALID,998.665,VALID,0,VALID,90.4339,VALID,0.112286,VALID,23.6604,VALID,118,VALID,0.748047,
2011-03-19, 02:35:04,VALID,998.658,VALID,0,VALID,90.5026,VALID,0.112286,VALID,23.6409,VALID,118,VALID,0.844141,
2011-03-19, 02:36:04,VALID,998.636,VALID,0,VALID,90.5636,VALID,0,VALID,23.6019,VALID,118,VALID,0.635547,
2011-03-19, 02:37:04,VALID,998.625,VALID,0,VALID,90.6475,VALID,0,VALID,23.6019,VALID,113,VALID,0.604297,
2011-03-19, 02:38:04,VALID,998.645,VALID,0,VALID,90.6933,VALID,0,VALID,23.5628,VALID,103,VALID,0.682422,
2011-03-19, 02:39:04,VALID,998.638,VALID,0,VALID,90.6933,VALID,0.112286,VALID,23.5433,VALID,99,VALID,0.620703,
2011-03-19, 02:40:04,VALID,998.622,VALID,0,VALID,90.6399,VALID,0,VALID,23.5256,VALID,91,VALID,0.603516,
2011-03-19, 02:41:04,VALID,998.632,VALID,0,VALID,90.617,VALID,0.112286,VALID,23.4848,VALID,91,VALID,0.740234,
2011-03-19, 02:42:04,VALID,998.613,VALID,0,VALID,90.6399,VALID,0.112286,VALID,23.444,VALID,91,VALID,0.526563,
2011-03-19, 02:43:04,VALID,998.586,VALID,0,VALID,90.7009,VALID,0.112286,VALID,23.4263,VALID,99,VALID,1.04453,
2011-03-19, 02:44:04,VALID,998.589,VALID,0,VALID,90.8154,VALID,0,VALID,23.4263,VALID,110,VALID,1.32383,
2011-03-19, 02:45:04,VALID,998.544,VALID,0,VALID,90.9756,VALID,0,VALID,23.4067,VALID,115,VALID,1.26602,
2011-03-19, 02:46:04,VALID,998.563,VALID,0,VALID,91.0824,VALID,0,VALID,23.4085,VALID,119,VALID,1.10859,
2011-03-19, 02:47:04,VALID,998.546,VALID,0,VALID,91.2121,VALID,0,VALID,23.4085,VALID,122,VALID,1.12422,
2011-03-19, 02:48:04,VALID,998.515,VALID,0,VALID,91.2884,VALID,0,VALID,23.3677,VALID,125,VALID,1.09883,
2011-03-19, 02:49:04,VALID,998.498,VALID,0,VALID,91.3571,VALID,0.112286,VALID,23.3482,VALID,124,VALID,1.09414,
2011-03-19, 02:50:04,VALID,998.502,VALID,0,VALID,91.3952,VALID,0,VALID,23.3287,VALID,119,VALID,1.05703,
2011-03-19, 02:51:04,VALID,998.463,VALID,0,VALID,91.4944,VALID,0.112286,VALID,23.3287,VALID,124,VALID,1.27109,
2011-03-19, 02:52:04,VALID,998.465,VALID,0,VALID,91.6165,VALID,0,VALID,23.3482,VALID,128,VALID,1.38555,
2011-03-19, 02:53:04,VALID,998.453,VALID,0,VALID,91.6851,VALID,0,VALID,23.3482,VALID,138,VALID,1.17383,
2011-03-19, 02:54:04,VALID,998.426,VALID,0,VALID,91.7233,VALID,0,VALID,23.3482,VALID,154,VALID,1.00117,
2011-03-19, 02:55:04,VALID,998.398,VALID,0,VALID,91.708,VALID,0,VALID,23.3482,VALID,158,VALID,1.11406,
2011-03-19, 02:56:04,VALID,998.345,VALID,0,VALID,91.6928,VALID,0,VALID,23.3677,VALID,154,VALID,0.644141,
2011-03-19, 02:57:04,VALID,998.303,VALID,0,VALID,91.6546,VALID,0,VALID,23.3677,VALID,148,VALID,1.11914,
2011-03-19, 02:58:04,VALID,998.279,VALID,0,VALID,91.5478,VALID,0,VALID,23.3677,VALID,150,VALID,0.538281,
2011-03-19, 02:59:04,VALID,998.276,VALID,0,VALID,91.441,VALID,0,VALID,23.389,VALID,147,VALID,1.22695,
2011-03-19, 03:00:04,VALID,998.28,VALID,0,VALID,91.296,VALID,0.112286,VALID,23.3677,VALID,150,VALID,0.356641,
2011-03-19, 03:01:04,VALID,998.288,VALID,0,VALID,91.1434,VALID,0,VALID,23.3677,VALID,150,VALID,0.172266,
2011-03-19, 03:02:04,VALID,998.253,VALID,0,VALID,90.9909,VALID,0.112286,VALID,23.3464,VALID,177,VALID,0.689453,
2011-03-19, 03:03:04,VALID,998.255,VALID,0,VALID,90.823,VALID,0,VALID,23.3482,VALID,129,VALID,0.589063,
2011-03-19, 03:04:04,VALID,998.29,VALID,0,VALID,90.678,VALID,0,VALID,23.389,VALID,129,VALID,0.395312,
2011-03-19, 03:05:04,VALID,998.269,VALID,0,VALID,90.5788,VALID,0,VALID,23.3695,VALID,129,VALID,0.265234,
2011-03-19, 03:06:04,VALID,998.243,VALID,0,VALID,90.4415,VALID,0,VALID,23.389,VALID,129,VALID,0.620313,
2011-03-19, 03:07:04,VALID,998.237,VALID,0,VALID,90.3652,VALID,0,VALID,23.3677,VALID,138,VALID,0.75,
2011-03-19, 03:08:04,VALID,998.187,VALID,0,VALID,90.1821,VALID,0,VALID,23.3677,VALID,137,VALID,0.859375,
2011-03-19, 03:09:04,VALID,998.163,VALID,0,VALID,89.938,VALID,0,VALID,23.4085,VALID,137,VALID,0.685156,
2011-03-19, 03:10:04,VALID,998.142,VALID,0,VALID,89.8006,VALID,0,VALID,23.3677,VALID,137,VALID,0.630078,
2011-03-19, 03:11:04,VALID,998.144,VALID,0,VALID,89.7625,VALID,0.112286,VALID,23.3872,VALID,137,VALID,0.672266,
2011-03-19, 03:12:04,VALID,998.112,VALID,0,VALID,89.7472,VALID,0,VALID,23.3677,VALID,137,VALID,0.632031,
2011-03-19, 03:13:04,VALID,998.176,VALID,0,VALID,89.7472,VALID,0,VALID,23.3872,VALID,143,VALID,0.814453,
2011-03-19, 03:14:04,VALID,998.108,VALID,0,VALID,89.7243,VALID,0,VALID,23.4298,VALID,145,VALID,0.882422,
2011-03-19, 03:15:04,VALID,998.151,VALID,0,VALID,89.6023,VALID,0,VALID,23.389,VALID,153,VALID,1.01211,
2011-03-19, 03:16:04,VALID,998.118,VALID,0,VALID,89.5412,VALID,0,VALID,23.389,VALID,155,VALID,1.18555,
2011-03-19, 03:17:04,VALID,998.07,VALID,0,VALID,89.4954,VALID,0,VALID,23.389,VALID,157,VALID,0.903516,
2011-03-19, 03:18:04,VALID,998.081,VALID,0,VALID,89.4726,VALID,0,VALID,23.389,VALID,149,VALID,1.08086,
2011-03-19, 03:19:04,VALID,998.045,VALID,0,VALID,89.442,VALID,0,VALID,23.389,VALID,148,VALID,0.992188,
2011-03-19, 03:20:04,VALID,998.026,VALID,0,VALID,89.4115,VALID,0,VALID,23.389,VALID,152,VALID,0.764844,
2011-03-19, 03:21:04,VALID,998.033,VALID,0,VALID,89.4344,VALID,0,VALID,23.3908,VALID,156,VALID,0.803125,
2011-03-19, 03:22:04,VALID,998.023,VALID,0,VALID,89.4726,VALID,0,VALID,23.3908,VALID,153,VALID,0.797656,
2011-03-19, 03:23:04,VALID,998.041,VALID,0,VALID,89.4726,VALID,0,VALID,23.3695,VALID,151,VALID,0.664453,
2011-03-19, 03:24:04,VALID,997.998,VALID,0,VALID,89.4802,VALID,0,VALID,23.35,VALID,151,VALID,0.697656,
2011-03-19, 03:25:04,VALID,998.021,VALID,0,VALID,89.4878,VALID,0,VALID,23.3518,VALID,151,VALID,0.514844,
2011-03-19, 03:26:04,VALID,997.983,VALID,0,VALID,89.5183,VALID,0,VALID,23.311,VALID,151,VALID,0.698047,
2011-03-19, 03:27:04,VALID,997.992,VALID,0,VALID,89.6633,VALID,0,VALID,23.3305,VALID,151,VALID,0.655469,
2011-03-19, 03:28:04,VALID,997.981,VALID,0,VALID,89.6709,VALID,0,VALID,23.3518,VALID,151,VALID,0.475,
2011-03-19, 03:29:04,VALID,998,VALID,0,VALID,89.6404,VALID,0,VALID,23.3305,VALID,151,VALID,0.348828,
2011-03-19, 03:30:04,VALID,998.033,VALID,0,VALID,89.6557,VALID,0,VALID,23.3305,VALID,151,VALID,0.187891,
2011-03-19, 03:31:04,VALID,998.05,VALID,0,VALID,89.7167,VALID,0,VALID,23.3305,VALID,151,VALID,0.516797,
2011-03-19, 03:32:04,VALID,998.045,VALID,0,VALID,89.8388,VALID,0,VALID,23.35,VALID,151,VALID,0.287891,
2011-03-19, 03:33:04,VALID,998.058,VALID,0,VALID,89.793,VALID,0,VALID,23.3482,VALID,151,VALID,0.250391,
2011-03-19, 03:34:04,VALID,998.076,VALID,0,VALID,89.7472,VALID,0,VALID,23.35,VALID,151,VALID,0.193359,
2011-03-19, 03:35:04,VALID,998.07,VALID,0,VALID,89.7167,VALID,0.112286,VALID,23.3482,VALID,151,VALID,0.19375,
2011-03-19, 03:36:04,VALID,998.056,VALID,0,VALID,89.4726,VALID,0,VALID,23.3305,VALID,151,VALID,0.391406,
2011-03-19, 03:37:04,VALID,998.061,VALID,0,VALID,89.2971,VALID,0,VALID,23.2915,VALID,151,VALID,0.360938,
2011-03-19, 03:38:04,VALID,998.054,VALID,0,VALID,89.2208,VALID,0,VALID,23.2524,VALID,91,VALID,0.627734,
2011-03-19, 03:39:04,VALID,998.037,VALID,0,VALID,89.2284,VALID,0.112286,VALID,23.1939,VALID,91,VALID,0.441406,
2011-03-19, 03:40:04,VALID,998.082,VALID,0,VALID,89.5489,VALID,0,VALID,23.1354,VALID,91,VALID,0.583594,
2011-03-19, 03:41:04,VALID,998.076,VALID,0,VALID,90.0219,VALID,0,VALID,23.1159,VALID,91,VALID,0.548828,
2011-03-19, 03:42:04,VALID,998.069,VALID,0,VALID,90.2737,VALID,0,VALID,23.1141,VALID,91,VALID,0.602344,
2011-03-19, 03:43:04,VALID,998.077,VALID,0,VALID,90.4949,VALID,0,VALID,23.1141,VALID,91,VALID,0.651953,
2011-03-19, 03:44:04,VALID,998.09,VALID,0,VALID,90.5407,VALID,0,VALID,23.1549,VALID,69,VALID,0.785156,
2011-03-19, 03:45:04,VALID,998.097,VALID,0,VALID,90.3957,VALID,0,VALID,23.0946,VALID,38,VALID,1.3793,
2011-03-19, 03:46:04,VALID,998.09,VALID,0,VALID,90.3881,VALID,0,VALID,23.0769,VALID,28,VALID,1.40117,
2011-03-19, 03:47:04,VALID,998.097,VALID,0,VALID,90.4568,VALID,0,VALID,23.0183,VALID,28,VALID,1.37188,